sat.trackr.live / text

‹ back to catalog

STARLINK-33644

NORAD 63414 · 2025-065R

PAYLOAD ACTIVE UNKNOWN

§ Identity

Operator
Country
US
Launch date
2025-03-31
Launch site
AFETR
Launch vehicle
Mass (kg)
RCS (m²)

Purposes: comms

External: N2YO · Heavens-Above · Gunter

§ Orbital elements

Epoch: 2026-09-20T22:19:10.113024Z

Period
94.27 min
Inclination
42.9994°
Eccentricity
0.0001288
Mean motion
15.27593000 rev/d
Perigee alt
482.1 km
Apogee alt
483.9 km
Semi-major
6,861.1 km
B*
4.3950e-4
RAAN
84.9083°
Arg perigee
274.7681°
Mean anomaly
85.3023°
Rev number
8,269

§ Raw data

STARLINK-336441 63414U 25065R   26263.92997816  .00011856  00000+0  43950-3 0  99902 63414  42.9994  84.9083 0001288 274.7681  85.3023 15.27593000 82691

JSON: /api/v1/satellites/63414 · /tle

For live sub-satellite position, see the globe view (requires WebGL).

§ Visibility from observer

Set your observer location to see the next 7 days of passes ≥ 10°. The values pass through the URL so the page stays shareable.

No JS? Fill the form by hand. The geolocation button needs JavaScript.